RH
92 86 80 75 75 76 76 77 77 77 77 78 77 78 77 77 77 79 77 76 77 76 76 75 74 75 76 75 74 72 72 72 72 74 76 74 74 76 77 74 74 72 77
85 83 81 77 75 76 77 77 77 77 77 77 77 76 76 76 77 77 75 74 76 76 76 73 73 72 74 75 75 72 72 76 76 74 74 75 73 74 76 74 74 74 75
82 77 76 80 76 76 77 76 74 73 74 75 77 75 76 76 76 75 73 75 75 75 72 73 74 74 74 74 74 74 76 75 74 73 74 84 78 73 75 74 76 77 77
81 82 80 81 78 75 75 76 76 74 77 77 74 72 73 76 76 74 73 73 75 73 75 75 74 73 74 74 73 75 76 77 73 69 73 70 64 72 72 74 76 76 76
84 87 81 78 78 73 75 75 75 76 76 76 74 74 74 74 73 73 75 74 73 75 74 72 70 70 70 70 70 69 69 70 71 71 76 83 77 66 70 73 72 72 73
88 82 78 76 75 74 75 75 76 75 74 75 73 73 74 75 71 74 72 70 71 71 72 72 72 71 71 70 70 69 69 69 73 82 83 75 86 73 74 75 74 71 73
89 77 84 78 77 74 74 74 75 72 71 72 73 72 72 74 74 74 74 73 75 74 73 72 71 67 66 67 69 70 71 66 74 80 79 85 77 81 76 74 69 67 68
79 78 74 77 76 73 73 74 75 73 75 76 75 73 72 74 74 75 74 74 72 70 71 71 69 65 65 68 70 74 72 70 70 83 83 79 83 80 74 72 75 72 73
73 78 82 82 77 73 74 75 78 75 75 73 71 68 71 71 74 73 72 71 70 70 70 70 69 67 66 69 72 75 75 74 82 89 74 86 84 76 72 74 76 76 76
78 80 85 88 87 92 89 76 79 76 73 71 71 71 73 72 74 73 77 74 70 69 68 68 68 70 72 73 73 75 74 72 76 80 89 89 82 74 73 76 77 76 72
78 87 84 86 90 92 94 86 75 72 71 70 73 74 80 93 90 77 75 71 68 67 66 69 70 72 73 72 73 80 76 88 64 86 84 86 80 76 74 76 78 77 74
84 84 77 80 85 89 86 91 90 79 86 87 83 87 93 90 91 77 76 73 68 67 68 70 72 71 70 75 71 73 88 77 74 77 91 82 77 76 73 74 77 78 78
79 71 75 75 80 88 87 85 94 93 88 90 91 93 90 84 90 91 93 88 89 77 80 76 74 76 69 75 90 90 84 89 90 89 81 78 76 73 71 71 74 77 77
73 72 69 73 83 88 86 85 87 94 95 97 94 90 93 91 91 87 90 91 88 89 88 87 81 76 77 74 87 91 73 87 94 94 88 82 77 74 69 70 73 78 78
70 64 62 66 84 86 90 79 82 92 95 94 90 88 91 92 93 93 92 92 92 91 92 91 94 90 86 78 78 74 77 82 90 94 96 79 83 77 72 73 75 76 72
68 68 59 66 77 79 91 90 84 88 85 91 88 84 91 96 96 95 94 83 94 93 94 93 87 89 89 91 85 82 84 87 84 84 92 95 80 78 77 74 74 73 75
58 58 62 66 78 87 90 90 90 90 76 84 83 83 85 92 92 92 88 92 94 92 92 89 90 89 79 84 85 91 79 74 82 84 86 93 88 78 82 77 82 82 78
54 58 54 47 64 84 86 83 85 85 86 80 77 83 87 86 81 89 90 91 91 92 96 96 85 78 83 90 86 91 91 78 77 90 89 86 94 75 85 85 84 83 78
62 57 58 71 74 79 81 85 91 79 84 82 78 84 80 77 83 86 87 87 94 90 94 83 87 75 86 84 74 90 93 92 84 73 76 82 86 86 89 86 84 81 75
62 73 74 69 70 80 86 90 89 80 87 89 79 77 72 77 82 78 82 86 92 86 88 83 86 83 86 70 59 78 90 92 90 84 86 70 84 84 90 90 94 85 79
57 66 67 69 74 87 90 82 82 79 82 74 82 71 78 87 82 86 89 87 83 83 81 78 87 87 81 82 81 78 80 76 85 90 83 92 89 88 90 95 95 91 87
59 65 64 65 78 82 84 85 82 84 83 76 81 77 77 75 81 78 82 86 87 82 84 78 87 89 88 84 74 87 88 75 82 85 86 86 77 87 84 87 88 89 91
59 65 65 64 74 80 81 84 88 88 87 91 87 77 76 74 78 78 82 86 83 92 92 86 88 88 89 84 83 76 86 77 85 91 82 88 85 90 92 91 88 91 93
64 64 71 69 75 79 80 83 84 83 90 93 79 82 77 79 77 77 78 83 81 86 88 91 80 89 94 91 90 82 79 73 74 68 88 88 84 77 92 89 82 89 94
72 64 76 79 76 74 86 87 84 90 92 93 95 91 83 87 79 77 79 83 82 90 89 92 88 93 94 93 90 92 86 85 89 92 76 82 90 83 95 88 85 93 94
65 67 76 84 84 80 87 90 86 87 91 93 90 92 92 93 84 84 81 82 81 92 92 92 90 88 90 91 96 93 93 92 84 83 85 85 83 82 94 95 93 98 98
Wind_Speed
4 6 11 13 13 14 15 16 14 14 13 14 13 14 14 14 12 11 11 11 11 10 11 12 12 12 13 12 11 11 11 10 11 11 10 8 9 11 9 10 9 7 10
5 5 13 14 14 15 16 16 15 14 13 13 13 14 13 13 12 10 10 10 11 11 11 11 11 11 12 12 11 11 10 10 10 10 9 6 7 9 10 10 9 6 8
6 5 10 13 14 15 15 15 15 14 14 13 13 13 13 13 12 11 11 11 11 11 12 11 10 9 9 10 9 9 9 9 8 8 6 3 3 9 10 11 10 10 10
7 6 5 12 13 14 15 15 16 14 13 13 13 13 13 13 13 13 11 11 11 11 11 11 10 9 8 8 7 8 9 7 8 8 4 2 3 7 7 8 9 9 9
6 5 8 13 15 16 15 15 15 14 14 15 14 14 14 12 13 14 12 11 12 11 10 10 9 7 8 7 7 4 4 5 7 8 4 2 2 6 8 8 6 6 6
7 6 12 15 16 16 16 15 14 14 14 14 13 13 13 13 12 16 13 11 11 11 9 8 6 3 3 3 4 4 4 4 6 6 6 10 6 11 9 9 9 7 6
6 5 6 13 15 16 16 15 14 14 14 13 12 12 13 12 12 14 13 11 10 10 7 6 4 3 3 4 4 3 4 3 3 1 5 8 8 14 12 10 10 7 7
7 4 5 12 13 15 15 15 14 14 14 13 12 12 11 10 10 12 11 9 9 7 6 5 3 3 6 7 5 5 6 8 6 4 4 4 10 14 14 12 9 4 5
7 5 3 3 10 14 14 14 14 14 13 13 13 12 9 9 8 9 9 8 7 7 6 5 5 6 7 9 10 9 9 7 4 5 1 2 8 13 14 14 13 10 8
5 5 5 3 4 5 5 13 13 13 12 12 10 9 7 6 7 8 6 5 6 6 6 6 6 7 9 9 8 10 7 5 4 4 2 2 8 13 13 14 12 11 8
5 4 4 4 4 4 4 7 10 12 12 10 7 5 4 1 2 2 4 5 6 5 5 8 8 7 9 8 5 8 5 4 2 3 3 6 11 14 12 13 9 6 8
5 5 4 4 5 4 3 5 5 5 3 3 2 0 1 2 1 4 4 8 6 6 7 9 9 11 9 3 0 7 4 4 2 4 1 7 9 13 11 11 9 6 6
7 7 4 4 4 5 4 3 2 2 2 1 2 2 0 2 3 3 2 1 2 5 3 5 4 4 5 3 5 6 5 3 2 3 4 7 6 8 10 10 8 6 6
9 6 6 5 5 3 2 3 3 2 2 1 2 3 1 1 2 2 2 2 2 2 3 1 3 6 7 4 2 7 9 4 1 2 4 8 11 9 11 9 7 7 6
8 10 10 5 3 3 3 2 3 3 3 3 2 3 3 3 3 4 4 2 2 3 1 4 3 4 4 4 2 1 5 3 3 3 3 11 10 7 9 6 7 8 7
8 8 9 7 5 6 5 5 4 3 3 3 2 3 6 5 3 4 4 1 4 1 3 3 5 4 3 7 1 3 5 6 3 2 3 5 10 10 7 5 9 8 7
11 10 8 7 6 5 6 5 3 4 4 4 3 5 4 5 5 4 3 1 2 4 3 1 3 4 4 3 4 4 6 7 4 2 6 3 9 8 7 7 8 6 6
11 11 9 9 9 8 6 4 3 4 4 4 4 4 5 6 5 5 3 3 1 3 2 3 3 2 3 0 2 5 3 1 5 4 5 1 4 2 6 7 7 6 6
14 12 11 9 7 7 6 5 3 4 3 3 4 4 6 6 7 5 2 3 4 3 3 2 3 4 3 3 5 1 2 1 1 5 2 3 2 3 0 4 5 6 4
12 12 12 9 7 5 4 2 1 1 3 1 4 4 5 4 3 2 2 3 2 1 3 3 1 2 1 2 3 2 2 2 2 4 2 1 5 2 2 5 2 3 4
15 13 12 10 7 5 2 2 2 2 3 2 3 6 7 6 6 5 3 1 2 2 1 1 1 1 0 1 3 4 2 2 4 4 2 5 4 6 5 3 1 2 1
16 14 13 12 7 6 4 3 3 3 3 1 1 4 6 7 6 4 3 0 2 3 3 2 2 2 1 2 2 2 3 2 3 3 1 6 5 2 5 4 5 2 1
16 15 15 14 11 7 7 2 3 3 2 2 1 2 2 4 6 4 4 2 0 1 2 1 1 1 1 2 0 4 1 1 1 2 3 2 5 3 3 3 4 2 4
12 9 10 9 10 8 7 4 4 3 3 3 2 2 3 4 6 5 5 4 2 2 3 2 1 2 3 1 2 1 1 4 2 3 1 3 1 2 1 1 3 3 6
7 7 6 6 7 7 7 6 5 3 2 1 1 4 4 4 6 7 6 5 5 2 3 4 2 2 1 2 2 1 2 3 2 2 1 3 1 2 3 1 2 3 3
7 6 6 8 7 8 7 7 7 7 6 4 3 3 3 3 4 6 6 6 5 4 5 4 2 2 1 1 2 2 2 1 1 2 1 2 0 3 3 0 3 2 3
Wind_Direction
188 158 138 132 125 123 123 125 125 122 119 116 115 113 113 113 112 117 124 123 120 117 115 112 114 117 121 123 126 126 126 124 128 143 138 146 148 143 137 129 120 117 125
150 156 138 134 131 129 128 129 129 128 128 126 123 125 125 121 118 115 117 126 126 122 115 109 121 131 130 132 125 120 123 138 145 145 147 143 157 143 138 135 135 134 133
146 135 134 133 132 132 130 131 130 132 133 133 132 131 129 127 124 124 125 128 132 125 124 131 131 132 127 116 117 119 133 145 149 148 135 65 78 129 135 146 148 149 149
142 128 131 138 139 132 133 133 133 132 129 123 124 128 129 127 133 125 124 128 131 125 125 129 130 118 113 116 131 143 146 154 159 163 120 136 172 155 152 147 149 150 152
139 143 144 139 138 138 136 135 133 134 131 127 128 129 127 128 130 125 129 133 135 139 132 124 121 127 132 139 148 141 151 180 195 206 153 224 230 187 169 159 156 154 145
127 140 139 142 143 140 137 133 136 136 130 126 130 125 128 132 135 122 129 133 136 135 133 124 117 146 148 174 175 195 236 233 241 229 226 183 188 191 181 164 157 149 140
127 131 141 143 142 139 140 138 139 135 133 128 125 122 126 129 126 126 129 142 139 133 127 133 164 208 262 255 248 233 241 250 294 282 174 171 184 183 172 182 163 155 175
123 126 139 146 143 143 143 143 141 140 136 127 127 125 117 113 132 128 129 135 136 138 153 169 213 272 278 286 305 351 28 13 7 358 193 184 194 181 176 186 176 199 217
127 112 104 126 149 146 145 146 152 149 145 134 130 129 118 116 117 115 139 140 149 163 179 211 241 267 291 311 343 1 51 31 44 13 27 289 225 195 185 187 195 213 215
103 118 130 127 123 133 146 146 149 145 146 131 125 121 103 95 117 144 142 163 181 191 212 240 260 288 308 322 337 22 34 305 159 100 58 238 260 220 200 206 198 202 184
110 126 140 134 135 133 138 148 136 143 139 126 123 121 111 122 360 139 190 203 220 231 250 264 275 289 286 293 313 117 215 241 165 177 179 225 260 233 223 223 225 189 189
149 154 162 151 146 144 112 128 114 115 119 138 149 55 179 65 342 28 297 277 275 278 277 279 286 285 286 64 352 154 241 277 53 271 256 215 226 228 239 240 225 225 186
158 163 179 181 168 161 150 145 125 151 175 214 206 220 311 39 14 9 339 330 281 264 276 303 322 278 266 175 181 211 255 217 202 273 291 320 253 239 251 243 231 218 175
165 169 187 194 189 175 175 159 171 192 217 219 247 234 137 183 231 231 132 226 226 259 281 274 280 322 291 341 75 231 240 280 113 216 267 294 279 254 249 232 216 185 174
176 180 191 189 174 199 194 161 196 222 218 207 242 294 198 217 172 129 166 185 276 261 306 15 343 274 298 79 343 156 201 204 25 322 317 258 243 251 243 219 189 184 164
179 199 197 193 180 197 201 207 209 205 214 219 137 201 179 142 168 181 176 60 351 298 72 2 317 310 69 125 199 117 114 108 48 345 298 285 258 234 219 186 170 165 169
186 198 210 192 189 206 217 223 230 228 224 236 178 179 175 148 170 154 197 88 253 287 353 331 295 280 97 72 118 221 131 124 174 227 273 255 273 197 199 184 176 155 155
174 190 205 211 191 196 210 213 236 245 243 258 181 174 179 173 162 169 191 241 205 288 24 271 96 260 15 39 238 222 301 53 158 185 218 171 263 205 196 196 192 158 159
180 186 203 215 221 203 179 207 191 241 230 200 170 156 186 155 184 171 133 312 337 343 337 181 197 174 180 197 212 326 1 75 220 278 77 197 190 264 164 253 210 183 186
186 180 198 205 205 186 154 127 120 342 290 247 221 176 176 168 207 208 251 244 258 267 256 43 351 360 332 263 349 90 296 18 285 285 284 214 146 196 159 200 190 254 210
185 187 196 200 180 148 137 172 128 194 251 260 232 192 170 192 204 210 228 327 184 250 356 27 33 24 121 182 49 324 352 359 308 285 249 99 118 184 196 227 196 249 260
182 192 198 201 165 176 168 185 177 147 243 230 251 177 182 176 197 203 174 349 49 61 359 5 53 329 310 123 137 61 360 12 318 315 89 98 215 149 227 189 130 251 174
184 181 186 185 174 185 180 151 63 54 78 21 29 253 226 198 204 174 182 185 73 10 314 309 343 67 14 305 356 143 69 288 331 291 297 190 223 201 262 151 94 256 223
184 179 171 168 175 183 170 174 138 166 171 226 197 204 244 226 209 193 186 177 188 250 330 301 241 207 145 13 351 351 123 170 155 345 15 283 315 211 194 56 44 300 233
139 160 165 172 176 184 174 170 172 170 242 212 254 252 228 228 219 203 191 178 194 187 245 252 248 187 195 134 118 345 305 23 84 126 297 329 265 160 112 313 201 258 285
152 153 154 172 207 185 182 184 182 190 188 185 208 220 212 234 228 228 186 190 184 184 212 215 219 200 219 207 139 123 111 105 297 125 145 263 165 27 106 161 117 42 5